Regional Weather Roundup
Issued by NWS

Home | Current Version | Previous Version | Text Only | Print | Product List | Glossary On
Versions: 1 2 3 4 5 6 7 8 9 10 11 12 13 14 15 16 17 18 19 20 21 22 23 24 25 26 27 28 29 30 31 32 33 34 35 36 37 38 39 40 41 42 43 44 45 46 47 48 49 50
000
ASUS43 KDTX 271001
RWRMI
MICHIGAN HOURLY REGIONAL WEATHER ROUNDUP
NATIONAL WEATHER SERVICE DETROIT/PONTIAC MI
600 AM EDT FRI MAY 27 2016

NOTE: "FAIR" INDICATES FEW OR NO CLOUDS BELOW 12,000 FEET WITH NO
SIGNIFICANT WEATHER AND/OR OBSTRUCTION TO VISIBILITY.

MIZ047>049-052>055-059>063-066>070-074>076-081>083-271100-
SOUTHEAST LOWER MICHIGAN

CITY           SKY/WX    TMP DP  RH WIND       PRES   REMARKS
ADRIAN         CLEAR     62  60  93 SW5       29.98S
ALMA           FOG       56  56 100 W5        29.94F VSB 1/4
ANN ARBOR      CLEAR     61  60  97 CALM      29.97R
BAD AXE        FOG       59  59 100 CALM      29.95R VSB<1/4
CARO           FOG       58  58  98 CALM      29.95R VSB 1/2
DETROIT CITY   CLEAR     69  62  78 SW8       29.96R
DETROIT        MOCLDY    66  61  84 SW7       29.98R
FLINT          CLEAR     64  58  80 CALM      29.96R
GROSSE ILE     CLEAR     66  63  88 CALM      29.96R
HILLSDALE      CLEAR     64  61  91 CALM      29.98S
HOWELL         CLEAR     64  61  91 CALM      29.96S

CITY           SKY/WX    TMP DP  RH WIND       PRES   REMARKS
JACKSON        CLEAR     61  60  97 SW3       29.97S
LAMBERTVILLE   CLEAR     66  62  86 CALM      29.98S
LANSING        CLEAR     65  60  84 CALM      29.96S
LAPEER         FAIR      61  59  96 CALM      29.96S
MASON          CLEAR     63  60  90 SE5       29.96S
MONROE         CLEAR     65  62  91 SW6       29.97S
PONTIAC        PTCLDY    66  61  84 SW6       29.96R
PORT HOPE        N/A     64  64 100 W5        29.92R
PORT HURON     CLEAR     63  63 100 CALM      29.95R FOG
TRI CITIES     CLEAR     65  62  90 CALM      29.95R FOG
MIDLAND        FOG       57  57 100 CALM      29.94S VSB 1/4
TROY           CLEAR     68  64  85 SW5       29.98R
SAGINAW HB     CLEAR     63  61  94 SW5       29.94F FOG
$$
MIZ043>046-050>051-056>058-064>065-071>073-077>080-271100-
SOUTHWEST LOWER MICHIGAN

CITY           SKY/WX    TMP DP  RH WIND       PRES   REMARKS
BATTLE CREEK   CLOUDY    63  61  93 S5        29.96S
BENTON HARBOR  MOCLDY    67  63  87 S5        29.92S
BIG RAPIDS     CLEAR     56  56  98 CALM      29.93S FOG
COLDWATER      CLOUDY    64  62  93 CALM      29.97R
FREMONT        FAIR      59  59 100 E3        29.92R FOG
HOLLAND        PTCLDY    64  62  93 SE5       29.93R
GRAND RAPIDS   MOCLDY    64  62  93 S6        29.94R
IONIA          FAIR      62  60  94 S3        29.94R
KALAMAZOO      PTCLDY    65  62  90 S6        29.95R
LUDINGTON      FOG       55  55 100 CALM      29.92R VSB 3/4
MARSHALL       CLOUDY    64  61  91 CALM      29.96S
MOUNT PLEASANT FOG       57  57 100 CALM      29.94R VSB 1/4
MUSKEGON       PTCLDY    67  63  87 S13       29.91S
SOUTH HAVEN    CLOUDY    66  65  94 S5        29.93R
$$
MIZ016>042-271100-
NORTHERN LOWER MICHIGAN

CITY           SKY/WX    TMP DP  RH WIND       PRES   REMARKS
ALPENA         FOG       56  55  97 CALM      29.94R VSB 1
BEAVER ISLAND  CLEAR     51  51 100 CALM      29.92S FOG
BELLAIRE       PTCLDY    55  53  96 CALM      29.93R FOG
CADILLAC         N/A     54  51  89 CALM      29.94S FOG
CHARLEVOIX     MOCLDY    55  55 100 E3        29.95S FOG
FRANKFORT        N/A     55  54  97 CALM      29.91R FOG
GAYLORD        CLEAR     59  57  93 CALM      29.95R FOG
GRAYLING       FOG       52  51  97 CALM      29.96R VSB 1/4
HARBOR SPRINGS FOG       53  53 100 NE3       29.93S VSB 1/2
HOUGHTON LAKE  FOG       54  53  97 E3        29.96R VSB 1/4
MANISTEE         N/A     55  52  88 E6        29.92S VSB 1/2
OSCODA         CLEAR     58  55  89 CALM      29.94R
PELLSTON       FOG       54  54 100 CALM      29.94R VSB 1/4
ROGERS CITY    FOG       56  55  96 CALM      29.96R VSB 1/4
TRAVERSE CITY  CLEAR     57  54  89 CALM      29.91R FOG
$$
MIZ007>008-015-271100-
EASTERN UPPER MICHIGAN

CITY           SKY/WX    TMP DP  RH WIND       PRES   REMARKS
KINROSS          N/A     55  55 100 S6        29.92R VSB<1/4
MACKINAC ISLAN MOCLDY    54  54 100 SE5       29.93S
NEWBERRY       FOG       52  51  97 S3        29.91R VSB 1/2
S. S. MARIE    FOG       54  53  97 SE3       29.91R VSB 1/4
MUNISING         N/A     59  57  93 S10       29.87R
$$
MIZ004>006-011>014-085-271100-
CENTRAL UPPER MICHIGAN

CITY           SKY/WX    TMP DP  RH WIND       PRES   REMARKS
MANISTIQUE     FOG       51  50  97 SE3       29.91R VSB 1/4
ESCANABA       CLOUDY    54  52  94 CALM      29.89  VSB<1/4
MENOMINEE      PTCLDY    54  54 100 NE3       29.88F
SAWYER-GWINN   FOG       55  54  97 SW5       29.90R VSB 1/4
$$
MIZ001>003-009>011-084-271100-
WESTERN UPPER MICHIGAN

CITY           SKY/WX    TMP DP  RH WIND       PRES   REMARKS
IRON MOUNTAIN  FOG       57  56  96 CALM      29.88R VSB 1/4
HOUGHTON       FOG       53  52  96 NW3       29.84F VSB 1/4
COPPER HARBOR    N/A     46  45  96 CALM      29.86F
IRONWOOD       PTCLDY    50  48  93 E5        29.85
$$

ABBREVIATIONS USED IN REMARKS
   TC - TEMPERATURE IN CELSIUS
  WCI - WIND CHILL INDEX
   HX - HEAT INDEX
  VSB - VISIBILITY





USA.gov is the U.S. government's official web portal to all federal, state and local government web resources and services.